Find Viasat-3 Americas

NORAD ID: 56370 Int'l Des: 2023-060 Owner: VIA Country: US Constellation: viasat operational
HEOCIRCULARGSOGEO

現在のビュー

3D地球を読み込み中...

About Viasat-3 Americas

Viasat-3 Americas (NORAD 56370) is a viasat constellation satellite launched May 1, 2023 by VIA of US. It operates in HEO, CIRCULAR, GSO, GEO orbit with a mass of 6418.00 kg.

Viasat-3 Americasについて

説明を読み込み中...

次回通過

Passes for default location (London). Set your location on the main map for personalized predictions.

高度履歴

Loading altitude history...

軌道要素

1 56370U 23060A 26193.61666088 .00000000 00000-0 00000+0 0 9993
2 56370 0.0161 22.0903 0001019 87.2892 314.1502 1.00270234 11685
Epoch: Jul 12, 2026 • Age: 39 hours

現在のステータス

高度 35790.9 km
遠地点 / 近地点 N/A
速度 3.07 km/s
衛星直下点 -0.04°S, 88.98°W
打ち上げ日 May 1, 2023
運用期間 3.2 years
タイプ other

技術仕様

分類 Payload
質量 6418.00 kg
乾燥質量 3500.00 kg
総質量 6418.00 kg
長さ 7.00 m
直径 3.00 m
スパン 44.00 m
形状 Box + 2 pan
製造者 BOES
バスタイプ BSS-702MP+
フェーズステータス In Orbit
所有者/国 VIA/US

Most Searched